Regional Weather Roundup
Issued by NWS Sterling, VA

Home | Current Version | Previous Version | Text Only | Print | Product List | Glossary Off
Versions: 1 2 3 4 5 6 7 8 9 10 11 12 13 14 15 16 17 18 19 20 21 22 23 24 25 26 27 28 29 30 31 32 33 34 35 36 37 38 39 40 41 42 43 44 45 46 47 48 49 50

000
ASUS41 KLWX 242010
RWRLWX

REGIONAL WEATHER ROUNDUP
NATIONAL WEATHER SERVICE BALTIMORE MD/WASHINGTON DC
300 PM EST SAT JAN 24 2015

Note: "FAIR" indicates few or no clouds below 12,000 feet
with no significant weather and/or obstructions to visibility.
 TC=TEMPERATURE CELSIUS

 * =Non NWS site. Station does not report precipitation (e.g. rain,
    snow, etc.), thunder, or fog.

DCZ001-MDZ009-015-VAZ040>042-051-053>054-242100-
WASHINGTON METRO

CITY           SKY/WX    TMP DP  RH WIND       PRES   REMARKS
WASHINGTON NAT CLOUDY    43  33  68 NW8       29.48R
DULLES         CLOUDY    39  34  82 W14G21    29.49R
ANDREWS AFB    CLOUDY    39  35  86 W12       29.46R
FT BELVOIR     CLOUDY    40  35  81 W10       29.49R
QUANTICO       CLOUDY    42  34  73 NW8       29.51R
COLLEGE PARK*  CLOUDY    41  34  75 W7        29.46R
LEESBURG*      CLOUDY    39  37  93 W8        29.49S
MANASSAS*      CLOUDY    41  37  87 NW8       29.50R
GAITHERSBURG*  CLOUDY    37  30  75 NW16G24   29.49R WCI  28

$$

MDZ006>007-011-014-242100-
BALTIMORE METRO

CITY           SKY/WX    TMP DP  RH WIND       PRES   REMARKS
BWI AIRPORT    CLOUDY    40  35  83 W9        29.44R
MD SCIENCE CTR   N/A     38  34  85 MISG      29.45R
MARTIN STATE   MOSUNNY   39  37  93 W14       29.45R
ANNAPOLIS      CLOUDY    39  34  82 W8        29.45R
FORT MEADE*    CLOUDY    39  34  81 W8G17     29.47R

$$

MDZ012-015-019>023-242100-
MARYLAND EASTERN SHORE

CITY           SKY/WX    TMP DP  RH WIND       PRES   REMARKS
OCEAN CITY     RAIN      39  37  92 W10G18    29.40R FOG
SALISBURY      LGT RAIN  40  36  86 W14G24    29.42R FOG
BAY BRIDGE AP*   N/A     37  36  93 NW10G16   29.45R
CAMBRIDGE*     CLOUDY    39  36  87 NW12      29.44R
EASTON*        RAIN      39  39 100 NW12G23   29.47

$$

MDZ017>025-242100-
SOUTHERN MARYLAND

CITY           SKY/WX    TMP DP  RH WIND       PRES   REMARKS
PATUXENT RIVER LGT RAIN  39  35  86 W13       29.48R
ST INIGOES     LGT RAIN  39  32  76 W13       29.48R
LEONARDTOWN*   CLOUDY    37  34  87 W8G18     29.49R

$$

MDZ003>005-242100-
NORTH CENTRAL MARYLAND

CITY           SKY/WX    TMP DP  RH WIND       PRES   REMARKS
FREDERICK*     CLOUDY    39  32  75 W7        29.50R
HAGERSTOWN APT PTSUNNY   40  26  57 W14       29.46R
WESTMINSTER*   CLOUDY    37  36  93 W12       29.42S

$$

MDZ501>502-242100-
WESTERN MARYLAND

CITY           SKY/WX    TMP DP  RH WIND       PRES   REMARKS
OAKLAND*       CLOUDY    25 N/A N/A W9        29.49R HAZE    WCI  15
CUMBERLAND*    SUNNY     36  23  60 W17G26    29.57R WCI  25

$$

VAZ025>031-242100-
SHENANDOAH VALLEY

CITY           SKY/WX    TMP DP  RH WIND       PRES   REMARKS
WINCHESTER*    CLOUDY    41  27  56 NW18G26   29.48S
FRONT ROYAL*   FAIR      41  30  65 W9        29.48S
LURAY*         MOCLDY    43  36  75 N3        29.49S
NEW MARKET*    FAIR      41  26  55 NW5       29.50S
STAUNTON*      MOSUNNY   43  27  53 W13G18    29.53R
WAYNESBORO*    MOCLDY    41  31  65 W12G20    29.51R

$$

WVZ021-048>050-054>055-242100-
EASTERN WEST VIRGINIA PANHANDLE

CITY           SKY/WX    TMP DP  RH WIND       PRES   REMARKS
MARTINSBURG    CLOUDY    42  28  57 W16G28    29.47F
PETERSBURG*    SUNNY     39  23  52 W12G17    29.56R

$$

VAZ036>039-050-242100-
CENTRAL FOOTHILLS

CITY           SKY/WX    TMP DP  RH WIND       PRES   REMARKS
CHARLOTTESVILL CLOUDY    44  36  73 W6        29.51R
CULPEPER*      CLOUDY    43  37  81 CALM      29.51R
ORANGE*        CLOUDY    43  39  87 SW6       29.52R
GORDONSVILLE*  CLOUDY    42  37  82 SW5       29.51R
WARRENTON*     CLOUDY    42  40  91 W3        29.49R

$$

VAZ055>057-242100-
NORTH AND CENTRAL PIEDMONT

CITY           SKY/WX    TMP DP  RH WIND       PRES   REMARKS
FREDERICKSBRG* CLOUDY    42  37  82 W6        29.51R
STAFFORD*      CLOUDY    40  40  99 W6        29.54R

$$

NCZ024-NYZ072-PAZ021-071-VAZ022-071-242100-
OTHER REGIONAL OBSERVATIONS

CITY           SKY/WX    TMP DP  RH WIND       PRES   REMARKS
NEW YORK CITY  CLOUDY    36  31  82 VRB7      29.30F
PHILADELPHIA   CLOUDY    38  34  85 NW12      29.37R
PITTSBURGH     CLOUDY    28  22  78 SW9       29.57F HAZE    WCI  19
ROANOKE        MOSUNNY   41  23  48 W18G30    29.63R
RICHMOND       LGT RAIN  41  39  93 W8        29.53R
RALEIGH        PTSUNNY   47  37  68 VRB7      29.61R

$$

ANZ530>537-242100-
MARINE OBSERVATIONS

STATION/POSITION TIME  TEMP    WIND        PRES
                       AIR SEA DIR/SP/G
                 (UTC) (F)     (DEG/KT/KT) (MB)
THOMAS PT LIGHT  2000   39 37  310/ 12/ 14  998.3R
BALT KEY BRIDGE  2000   38     280/ 10/ 12  996.5R
COVE POINT       2000   38     320/ 13/ 19  997.6R
LEWISETTA        2000   38 38  300/ 12/ 14  998.5R
SOLOMONS ISLAND  2000      38                N/A
PINEY POINT      2000          310/ 20/ 23   N/A

$$




USA.gov is the U.S. government's official web portal to all federal, state and local government web resources and services.